STARLINK-30949, 58415

Orbit data source: Space-Track

STARLINK-30949, 58415 is a payload satellite owned by SpaceX/Seattle (US) in LEO that was launched on Wed, 22 Nov 2023 UTC via an FALCON 9 launch vehicle from the Air Force Eastern Test Range (AFETR). Payload-class satellites include a variety of spacecraft equipped with specific instruments for various scientific and technological missions. These include communications satellites like Starlink; space stations such as the ISS; scientific satellites like the Hubble; Earth observation satellites from companies like Planet Labs, Umbra, and HawkEye 360; GPS; miniature CubeSats for education and research; and military/defense satellites.

Loading next visibility...
Identifier
58415, 2023-180P
Orbit
LEO
Country
Flag of USUS
Related business
Manufacturer
SpaceX/Seattle
Mission
Operational Commercial Communications
Bus & Motor
STARLINK V2M, Unknown motor
Mass
730 kg wet, ~700 kg dry
Launch date (UTC)
2023-11-22 (2 years ago)
Launch vehicle
FALCON 9
Launch site
Air Force Eastern Test Range (AFETR)
Object type
Payload
Rocket body
Debris
Shape & HBR
Box + 2 Pan, 14.5 m
Radar Cross Section
33.884 m², Large (>1 m²)

Expand to show TLE details & history
Last TLE update: 13 hours ago

TLE from 13 hours ago
0 STARLINK-30949
1 58415U 23180P   25250.27443344  .00001482  00000-0  12469-3 0  9992
2 58415  43.0031 332.7175 0001265 256.3062 103.7640 15.02547158 99997
Epoch: 2025-09-07T06:35Z
TLE epoch observation values (Epoch: 2025-09-07T06:35:11.049Z)
Latitude
0.00002°
Longitude
-112.67477°
Altitude
559.032 km
Speed
7.584 km/s
True Right ascension
22h 10m 52s
True Declination
0° 00' 00"
Sunlit
Object was in full shadow at epoch
Visualization orbit readout
Latitude
Unknown
Longitude
Unknown
Altitude
Unknown
Speed
Unknown
Apparent Right ascension
Unknown
Apparent Declination
Unknown
Sunlit
N/A
Visualization observer readout
Local Sidereal Time
11:43:38
Azimuth
Unknown
Elevation
Unknown
Doppler factor
Unknown
Orbital elements
Apogee altitude
561.846 km
Perigee altitude
560.091 km
Semi-major axis
6,939.106 km
Eccentricity
0.00013
Inclination
43.0031°
RAAN
332.7175°
Arg. of periapsis
256.3062°
True anomaly
103.77808°
Mean anomaly
103.764°
Eccentric anomaly
103.77104°
Mean motion
3.75481 °/min
Orbital period
95.88 mins
BSTAR
0.00012469
Loading maneuver chart data...
Computing Atmospheric mass density...
Loading historical data...
Loading historical data...
Loading historical data...
Loading historical data...
Loading historical data...
Loading historical data...
Loading historical data...

Documentation

Showing up to 5 results
|